AZU0721 SBBV-SBMQ

Flight info

Callsign AZU0721
Flight time 1h 47m
Altitude 36000
Route ANBIX UZ24 EDPID DCT AKPAN DCT ENVUT
Aircraft E145/L-L/2000

Departure

Time 2026-04-28 01:19
Airport Atlas Brasil Cantanhede International Airport (SBBV)

Arrival

Time 2026-04-28 03:06
Airport Macapá - Alberto Alcolumbre International Airport (SBMQ)
Time Latitude Longitude Altitude Speed Heading
2026-04-28 00:52 2.84228 -60.69207 272 ft 0 kts 153°
2026-04-28 01:10 2.84228 -60.69206 272 ft 0 kts 153°
2026-04-28 01:11 2.84234 -60.69210 272 ft 2 kts 153°
2026-04-28 01:11 2.84247 -60.69216 272 ft 2 kts 153°
2026-04-28 01:11 2.84256 -60.69220 272 ft 2 kts 146°
2026-04-28 01:11 2.84266 -60.69231 272 ft 2 kts 121°
2026-04-28 01:12 2.84271 -60.69245 272 ft 2 kts 97°
2026-04-28 01:12 2.84271 -60.69260 272 ft 2 kts 74°
2026-04-28 01:12 2.84267 -60.69269 272 ft 0 kts 64°
2026-04-28 01:14 2.84268 -60.69267 272 ft 0 kts 64°
2026-04-28 01:14 2.84272 -60.69260 272 ft 1 kts 63°
2026-04-28 01:14 2.84286 -60.69244 272 ft 4 kts 35°
2026-04-28 01:14 2.84321 -60.69243 272 ft 4 kts 329°
2026-04-28 01:15 2.84322 -60.69276 272 ft 6 kts 257°
2026-04-28 01:15 2.84297 -60.69330 272 ft 10 kts 243°
2026-04-28 01:15 2.84264 -60.69395 272 ft 11 kts 242°
2026-04-28 01:15 2.84226 -60.69465 272 ft 12 kts 242°
2026-04-28 01:16 2.84186 -60.69545 271 ft 14 kts 243°
2026-04-28 01:16 2.84133 -60.69648 269 ft 17 kts 242°
2026-04-28 01:16 2.84079 -60.69755 269 ft 16 kts 243°
2026-04-28 01:16 2.84026 -60.69857 268 ft 16 kts 242°
2026-04-28 01:17 2.83972 -60.69961 265 ft 17 kts 242°
2026-04-28 01:17 2.83965 -60.70062 265 ft 15 kts 329°
2026-04-28 01:17 2.84067 -60.70071 265 ft 11 kts 358°
2026-04-28 01:17 2.84083 -60.70066 266 ft 0 kts 53°
2026-04-28 01:18 2.84089 -60.70058 266 ft 6 kts 56°
2026-04-28 01:18 2.84222 -60.69806 269 ft 77 kts 63°
2026-04-28 01:18 2.84571 -60.69121 269 ft 143 kts 64°
2026-04-28 01:18 2.85136 -60.68203 724 ft 165 kts 55°
2026-04-28 01:19 2.85860 -60.67262 1344 ft 178 kts 53°
2026-04-28 01:19 2.86536 -60.66053 1369 ft 221 kts 76°
2026-04-28 01:19 2.86901 -60.64439 1604 ft 254 kts 89°
2026-04-28 01:19 2.86397 -60.62780 2528 ft 253 kts 128°
2026-04-28 01:20 2.85022 -60.61811 3558 ft 250 kts 163°
2026-04-28 01:20 2.83305 -60.61840 4398 ft 256 kts 198°
2026-04-28 01:20 2.81671 -60.62592 5204 ft 261 kts 196°
2026-04-28 01:20 2.79922 -60.62965 6015 ft 264 kts 186°
2026-04-28 01:21 2.78081 -60.63134 6834 ft 267 kts 181°
2026-04-28 01:21 2.76252 -60.63197 7611 ft 270 kts 179°
2026-04-28 01:21 2.74348 -60.63210 8385 ft 274 kts 178°
2026-04-28 01:21 2.72449 -60.63199 9127 ft 278 kts 177°
2026-04-28 01:22 2.70508 -60.63176 9857 ft 281 kts 177°
2026-04-28 01:22 2.68543 -60.63148 10510 ft 287 kts 177°
2026-04-28 01:22 2.66501 -60.63114 10962 ft 301 kts 177°
2026-04-28 01:22 2.64357 -60.63079 11438 ft 313 kts 177°
2026-04-28 01:23 2.62164 -60.63043 11924 ft 324 kts 177°
2026-04-28 01:23 2.59878 -60.63005 12456 ft 332 kts 177°
2026-04-28 01:23 2.57559 -60.62967 13186 ft 334 kts 177°
2026-04-28 01:23 2.55272 -60.62929 13905 ft 335 kts 177°
2026-04-28 01:24 2.52932 -60.62890 14563 ft 337 kts 177°
2026-04-28 01:24 2.50581 -60.62851 15193 ft 340 kts 177°
2026-04-28 01:24 2.48216 -60.62811 15818 ft 342 kts 177°
2026-04-28 01:24 2.45862 -60.62772 16421 ft 345 kts 178°
2026-04-28 01:25 2.43446 -60.62731 17011 ft 347 kts 178°
2026-04-28 01:25 2.41056 -60.62691 17579 ft 350 kts 178°
2026-04-28 01:25 2.38610 -60.62651 18152 ft 352 kts 178°
2026-04-28 01:25 2.36187 -60.62610 18884 ft 348 kts 178°
2026-04-28 01:26 2.33783 -60.62570 19598 ft 344 kts 178°
2026-04-28 01:26 2.31424 -60.62530 20215 ft 343 kts 178°
2026-04-28 01:26 2.29049 -60.62491 20802 ft 342 kts 178°
2026-04-28 01:26 2.26669 -60.62451 21385 ft 341 kts 178°
2026-04-28 01:27 2.24333 -60.62412 21953 ft 340 kts 178°
2026-04-28 01:27 2.21965 -60.62373 22508 ft 339 kts 178°
2026-04-28 01:27 2.19649 -60.62237 23014 ft 337 kts 167°
2026-04-28 01:27 2.17557 -60.61221 23474 ft 337 kts 141°
2026-04-28 01:28 2.15801 -60.59713 23973 ft 336 kts 139°
2026-04-28 01:28 2.14057 -60.58154 24448 ft 336 kts 138°
2026-04-28 01:28 2.12355 -60.56598 24910 ft 335 kts 138°
2026-04-28 01:28 2.10642 -60.55020 25367 ft 335 kts 138°
2026-04-28 01:29 2.08935 -60.53443 25811 ft 334 kts 138°
2026-04-28 01:29 2.07226 -60.51863 26246 ft 334 kts 138°
2026-04-28 01:29 2.05540 -60.50302 26659 ft 334 kts 138°
2026-04-28 01:29 2.03851 -60.48739 27064 ft 333 kts 138°
2026-04-28 01:30 2.02152 -60.47166 27464 ft 333 kts 138°
2026-04-28 01:30 2.00455 -60.45596 27849 ft 332 kts 138°
2026-04-28 01:30 1.98778 -60.44043 28219 ft 332 kts 138°
2026-04-28 01:30 1.97078 -60.42469 28586 ft 332 kts 138°
2026-04-28 01:31 1.95405 -60.40921 28940 ft 331 kts 138°
2026-04-28 01:31 1.93711 -60.39354 29288 ft 331 kts 138°
2026-04-28 01:31 1.92038 -60.37806 29621 ft 331 kts 138°
2026-04-28 01:31 1.90345 -60.36239 29947 ft 331 kts 138°
2026-04-28 01:32 1.88665 -60.34684 30269 ft 330 kts 138°
2026-04-28 01:32 1.86971 -60.33117 30582 ft 330 kts 138°
2026-04-28 01:32 1.85304 -60.31574 30882 ft 330 kts 138°
2026-04-28 01:32 1.83615 -60.30011 31179 ft 329 kts 138°
2026-04-28 01:33 1.81946 -60.28466 31465 ft 329 kts 138°
2026-04-28 01:33 1.80282 -60.26927 31741 ft 329 kts 138°
2026-04-28 01:33 1.78597 -60.25368 32011 ft 328 kts 138°
2026-04-28 01:33 1.76932 -60.23828 32271 ft 328 kts 138°
2026-04-28 01:34 1.75277 -60.22297 32526 ft 328 kts 138°
2026-04-28 01:34 1.73593 -60.20738 32778 ft 328 kts 138°
2026-04-28 01:34 1.71936 -60.19206 33019 ft 327 kts 138°
2026-04-28 01:34 1.70278 -60.17672 33252 ft 327 kts 138°
2026-04-28 01:35 1.68607 -60.16126 33482 ft 327 kts 138°
2026-04-28 01:35 1.66945 -60.14589 33705 ft 327 kts 138°
2026-04-28 01:35 1.65287 -60.13055 33920 ft 326 kts 138°
2026-04-28 01:35 1.63606 -60.11500 34133 ft 326 kts 138°
2026-04-28 01:36 1.61951 -60.09969 34340 ft 326 kts 138°
2026-04-28 01:36 1.60306 -60.08447 34543 ft 325 kts 138°
2026-04-28 01:36 1.58641 -60.06907 34741 ft 325 kts 138°
2026-04-28 01:36 1.56989 -60.05379 34931 ft 325 kts 138°
2026-04-28 01:37 1.55320 -60.03836 35118 ft 324 kts 138°
2026-04-28 01:37 1.53685 -60.02325 35289 ft 322 kts 138°
2026-04-28 01:37 1.50397 -59.99287 35395 ft 323 kts 138°
2026-04-28 01:38 1.47098 -59.96238 35509 ft 324 kts 138°
2026-04-28 01:38 1.43804 -59.93194 35696 ft 325 kts 138°
2026-04-28 01:39 1.42134 -59.91650 35892 ft 324 kts 138°
2026-04-28 01:39 1.40482 -59.90125 35960 ft 327 kts 138°
2026-04-28 01:39 1.37137 -59.87034 35968 ft 332 kts 138°
2026-04-28 01:40 1.33730 -59.83886 35969 ft 336 kts 138°
2026-04-28 01:40 1.30267 -59.80686 35969 ft 340 kts 138°
2026-04-28 01:41 1.26774 -59.77459 35969 ft 345 kts 138°
2026-04-28 01:41 1.23236 -59.74191 35969 ft 349 kts 138°
2026-04-28 01:42 1.19667 -59.70893 35969 ft 353 kts 138°
2026-04-28 01:42 1.16014 -59.67519 35969 ft 358 kts 138°
2026-04-28 01:43 1.12339 -59.64122 35969 ft 363 kts 138°
2026-04-28 01:43 1.08580 -59.60646 35969 ft 367 kts 138°
2026-04-28 01:44 1.04831 -59.57179 35969 ft 372 kts 138°
2026-04-28 01:44 1.00980 -59.53619 35969 ft 376 kts 138°
2026-04-28 01:45 0.97108 -59.50037 35969 ft 381 kts 138°
2026-04-28 01:45 0.93221 -59.46444 35969 ft 386 kts 138°
2026-04-28 01:46 0.89236 -59.42759 35969 ft 390 kts 138°
2026-04-28 01:46 0.85196 -59.39024 35969 ft 394 kts 138°
2026-04-28 01:47 0.81132 -59.35267 35969 ft 399 kts 138°
2026-04-28 01:47 0.77228 -59.31284 35969 ft 403 kts 134°
2026-04-28 01:48 0.73367 -59.27190 35968 ft 407 kts 134°
2026-04-28 01:48 0.69486 -59.23076 35968 ft 411 kts 134°
2026-04-28 01:49 0.65547 -59.18899 35968 ft 414 kts 134°
2026-04-28 01:49 0.61555 -59.14666 35968 ft 418 kts 134°
2026-04-28 01:50 0.57566 -59.10436 35967 ft 421 kts 134°
2026-04-28 01:50 0.53524 -59.06151 35968 ft 424 kts 134°
2026-04-28 01:51 0.49498 -59.01882 35967 ft 427 kts 134°
2026-04-28 01:51 0.45397 -58.97534 35967 ft 430 kts 134°
2026-04-28 01:52 0.41295 -58.93185 35967 ft 433 kts 134°
2026-04-28 01:52 0.37175 -58.88818 35967 ft 435 kts 134°
2026-04-28 01:53 0.33010 -58.84402 35967 ft 438 kts 134°
2026-04-28 01:53 0.28824 -58.79964 35967 ft 440 kts 134°
2026-04-28 01:54 0.24620 -58.75507 35967 ft 442 kts 134°
2026-04-28 01:54 0.20414 -58.71047 35967 ft 444 kts 134°
2026-04-28 01:55 0.16142 -58.66519 35967 ft 446 kts 134°
2026-04-28 01:55 0.11900 -58.62022 35962 ft 448 kts 134°
2026-04-28 01:56 0.07575 -58.57437 35955 ft 450 kts 134°
2026-04-28 01:56 0.03311 -58.52917 35948 ft 451 kts 134°
2026-04-28 01:57 0.01327 -58.50471 35920 ft 452 kts 120°
2026-04-28 01:57 0.00217 -58.47530 35948 ft 451 kts 101°
2026-04-28 01:57 0.00141 -58.44414 35954 ft 450 kts 82°
2026-04-28 01:57 0.00646 -58.41338 35948 ft 451 kts 80°
2026-04-28 01:58 0.01730 -58.35114 35943 ft 452 kts 80°
2026-04-28 01:58 0.02822 -58.28909 35943 ft 453 kts 80°
2026-04-28 01:59 0.03911 -58.22733 35945 ft 454 kts 80°
2026-04-28 01:59 0.05002 -58.16544 35947 ft 455 kts 80°
2026-04-28 02:00 0.06108 -58.10274 35949 ft 456 kts 80°
2026-04-28 02:00 0.07212 -58.04010 35950 ft 456 kts 80°
2026-04-28 02:01 0.08311 -57.97775 35948 ft 457 kts 80°
2026-04-28 02:01 0.09409 -57.91544 35945 ft 458 kts 80°
2026-04-28 02:02 0.10509 -57.85305 35941 ft 458 kts 80°
2026-04-28 02:02 0.11615 -57.79032 35943 ft 458 kts 80°
2026-04-28 02:03 0.12714 -57.72801 35950 ft 459 kts 80°
2026-04-28 02:03 0.13818 -57.66537 35957 ft 459 kts 80°
2026-04-28 02:04 0.14928 -57.60241 35964 ft 459 kts 80°
2026-04-28 02:04 0.16033 -57.53970 35966 ft 459 kts 80°
2026-04-28 02:05 0.17136 -57.47717 35966 ft 460 kts 80°
2026-04-28 02:05 0.18246 -57.41416 35967 ft 460 kts 80°
2026-04-28 02:06 0.19346 -57.35176 35967 ft 460 kts 80°
2026-04-28 02:06 0.20456 -57.28878 35966 ft 460 kts 80°
2026-04-28 02:07 0.21564 -57.22590 35966 ft 460 kts 80°
2026-04-28 02:07 0.22676 -57.16281 35966 ft 461 kts 80°
2026-04-28 02:08 0.23784 -57.09998 35965 ft 461 kts 80°
2026-04-28 02:08 0.24894 -57.03697 35965 ft 461 kts 80°
2026-04-28 02:09 0.26001 -56.97420 35965 ft 461 kts 80°
2026-04-28 02:09 0.27113 -56.91111 35965 ft 462 kts 80°
2026-04-28 02:10 0.28075 -56.84776 35948 ft 462 kts 89°
2026-04-28 02:10 0.28094 -56.78361 35968 ft 463 kts 90°
2026-04-28 02:11 0.28065 -56.71962 35967 ft 463 kts 90°
2026-04-28 02:11 0.28032 -56.65545 35967 ft 464 kts 90°
2026-04-28 02:12 0.27999 -56.59084 35967 ft 464 kts 90°
2026-04-28 02:12 0.27966 -56.52662 35967 ft 465 kts 90°
2026-04-28 02:13 0.27933 -56.46228 35967 ft 465 kts 90°
2026-04-28 02:13 0.27900 -56.39752 35967 ft 465 kts 90°
2026-04-28 02:14 0.27867 -56.33301 35966 ft 466 kts 90°
2026-04-28 02:14 0.27833 -56.26864 35965 ft 466 kts 90°
2026-04-28 02:15 0.27784 -56.17177 35965 ft 466 kts 90°
2026-04-28 02:16 0.27750 -56.10691 35966 ft 466 kts 90°
2026-04-28 02:16 0.27717 -56.04256 35966 ft 466 kts 90°
2026-04-28 02:17 0.27684 -55.97779 35966 ft 466 kts 90°
2026-04-28 02:17 0.27650 -55.91325 35966 ft 467 kts 90°
2026-04-28 02:18 0.27617 -55.84866 35966 ft 467 kts 90°
2026-04-28 02:18 0.27583 -55.78401 35966 ft 467 kts 90°
2026-04-28 02:19 0.27550 -55.71927 35967 ft 467 kts 90°
2026-04-28 02:19 0.27516 -55.65425 35966 ft 467 kts 90°
2026-04-28 02:20 0.27482 -55.58992 35967 ft 467 kts 90°
2026-04-28 02:20 0.27448 -55.52501 35967 ft 467 kts 90°
2026-04-28 02:21 0.27415 -55.46032 35967 ft 467 kts 90°
2026-04-28 02:21 0.27381 -55.39554 35967 ft 468 kts 90°
2026-04-28 02:22 0.27347 -55.33047 35965 ft 468 kts 90°
2026-04-28 02:22 0.27313 -55.26548 35965 ft 468 kts 90°
2026-04-28 02:23 0.27279 -55.20071 35965 ft 468 kts 90°
2026-04-28 02:23 0.27246 -55.13619 35966 ft 468 kts 91°
2026-04-28 02:24 0.27212 -55.07148 35966 ft 467 kts 91°
2026-04-28 02:24 0.27178 -55.00645 35966 ft 467 kts 91°
2026-04-28 02:25 0.27143 -54.94189 35966 ft 466 kts 91°
2026-04-28 02:25 0.27109 -54.87735 35965 ft 465 kts 91°
2026-04-28 02:26 0.27075 -54.81288 35965 ft 465 kts 91°
2026-04-28 02:26 0.27041 -54.74833 35965 ft 465 kts 91°
2026-04-28 02:27 0.27007 -54.68406 35966 ft 464 kts 91°
2026-04-28 02:27 0.26973 -54.61970 35966 ft 464 kts 91°
2026-04-28 02:28 0.26939 -54.55534 35966 ft 464 kts 91°
2026-04-28 02:28 0.26905 -54.49122 35966 ft 464 kts 91°
2026-04-28 02:29 0.26871 -54.42712 35966 ft 464 kts 91°
2026-04-28 02:29 0.26837 -54.36263 35966 ft 464 kts 91°
2026-04-28 02:30 0.26803 -54.29820 35965 ft 464 kts 91°
2026-04-28 02:30 0.26769 -54.23397 35965 ft 464 kts 91°
2026-04-28 02:31 0.26734 -54.16967 35965 ft 464 kts 91°
2026-04-28 02:31 0.26700 -54.10547 35965 ft 464 kts 91°
2026-04-28 02:32 0.26666 -54.04129 35965 ft 464 kts 91°
2026-04-28 02:32 0.26632 -53.97708 35966 ft 464 kts 91°
2026-04-28 02:33 0.26597 -53.91291 35973 ft 463 kts 91°
2026-04-28 02:33 0.26563 -53.84846 35980 ft 463 kts 91°
2026-04-28 02:34 0.26529 -53.78449 35988 ft 463 kts 91°
2026-04-28 02:34 0.26494 -53.72041 35993 ft 463 kts 91°
2026-04-28 02:35 0.26460 -53.65609 35993 ft 463 kts 91°
2026-04-28 02:35 0.26166 -53.59182 35998 ft 462 kts 99°
2026-04-28 02:36 0.25200 -53.52866 35993 ft 462 kts 99°
2026-04-28 02:36 0.24198 -53.46503 35993 ft 463 kts 99°
2026-04-28 02:37 0.23198 -53.40167 35993 ft 463 kts 99°
2026-04-28 02:37 0.22198 -53.33833 35993 ft 463 kts 99°
2026-04-28 02:38 0.21191 -53.27454 35992 ft 463 kts 99°
2026-04-28 02:38 0.20193 -53.21129 35992 ft 463 kts 99°
2026-04-28 02:39 0.19195 -53.14807 35986 ft 455 kts 99°
2026-04-28 02:39 0.18227 -53.08676 35987 ft 443 kts 100°
2026-04-28 02:40 0.17276 -53.02646 35990 ft 439 kts 100°
2026-04-28 02:40 0.16332 -52.96659 35991 ft 436 kts 100°
2026-04-28 02:41 0.15390 -52.90691 35991 ft 433 kts 101°
2026-04-28 02:41 0.14926 -52.87752 35603 ft 433 kts 101°
2026-04-28 02:41 0.14459 -52.84790 35044 ft 428 kts 101°
2026-04-28 02:41 0.14002 -52.81894 34492 ft 423 kts 101°
2026-04-28 02:42 0.13550 -52.79034 33941 ft 418 kts 101°
2026-04-28 02:42 0.13099 -52.76186 33386 ft 414 kts 101°
2026-04-28 02:42 0.12654 -52.73368 32831 ft 410 kts 101°
2026-04-28 02:42 0.12212 -52.70570 32275 ft 406 kts 101°
2026-04-28 02:43 0.11778 -52.67822 31723 ft 402 kts 101°
2026-04-28 02:43 0.11343 -52.65071 31166 ft 398 kts 101°
2026-04-28 02:43 0.10915 -52.62355 30612 ft 395 kts 101°
2026-04-28 02:43 0.10495 -52.59697 30064 ft 391 kts 101°
2026-04-28 02:44 0.10073 -52.57027 29510 ft 388 kts 101°
2026-04-28 02:44 0.09654 -52.54374 28955 ft 385 kts 101°
2026-04-28 02:44 0.09239 -52.51741 28400 ft 383 kts 101°
2026-04-28 02:44 0.08826 -52.49127 27845 ft 380 kts 101°
2026-04-28 02:45 0.08421 -52.46563 27297 ft 377 kts 101°
2026-04-28 02:45 0.08013 -52.43978 26741 ft 375 kts 101°
2026-04-28 02:45 0.07607 -52.41410 26185 ft 372 kts 101°
2026-04-28 02:45 0.07211 -52.38900 25637 ft 370 kts 101°
2026-04-28 02:46 0.06812 -52.36372 25140 ft 366 kts 101°
2026-04-28 02:46 0.06416 -52.33867 24682 ft 362 kts 100°
2026-04-28 02:46 0.06026 -52.31396 24228 ft 358 kts 100°
2026-04-28 02:46 0.05640 -52.28949 23782 ft 354 kts 100°
2026-04-28 02:47 0.05264 -52.26570 23359 ft 350 kts 100°
2026-04-28 02:47 0.04888 -52.24189 22932 ft 346 kts 100°
2026-04-28 02:47 0.04514 -52.21823 22525 ft 342 kts 100°
2026-04-28 02:47 0.04145 -52.19486 22120 ft 338 kts 100°
2026-04-28 02:48 0.03781 -52.17179 21697 ft 336 kts 100°
2026-04-28 02:48 0.03419 -52.14886 21271 ft 334 kts 100°
2026-04-28 02:48 0.03063 -52.12631 20849 ft 331 kts 100°
2026-04-28 02:48 0.02702 -52.10347 20419 ft 330 kts 100°
2026-04-28 02:49 0.02351 -52.08121 20009 ft 327 kts 99°
2026-04-28 02:49 0.01996 -52.05876 19606 ft 325 kts 99°
2026-04-28 02:49 0.01645 -52.03648 19203 ft 323 kts 99°
2026-04-28 02:49 0.01297 -52.01448 18803 ft 321 kts 99°
2026-04-28 02:50 0.00950 -51.99251 18400 ft 319 kts 99°
2026-04-28 02:50 0.00608 -51.97081 17998 ft 316 kts 99°
2026-04-28 02:50 0.00272 -51.94953 17599 ft 313 kts 99°
2026-04-28 02:50 -0.00067 -51.92804 17194 ft 310 kts 99°
2026-04-28 02:51 -0.00402 -51.90688 16792 ft 308 kts 99°
2026-04-28 02:51 -0.00734 -51.88581 16389 ft 306 kts 99°
2026-04-28 02:51 -0.01065 -51.86484 15987 ft 304 kts 99°
2026-04-28 02:51 -0.01393 -51.84408 15611 ft 302 kts 99°
2026-04-28 02:52 -0.01715 -51.82368 15237 ft 300 kts 99°
2026-04-28 02:52 -0.02040 -51.80313 14859 ft 298 kts 99°
2026-04-28 02:52 -0.02359 -51.78291 14484 ft 296 kts 98°
2026-04-28 02:52 -0.02680 -51.76257 14106 ft 295 kts 98°
2026-04-28 02:53 -0.02996 -51.74255 13716 ft 294 kts 98°
2026-04-28 02:53 -0.03312 -51.72255 13284 ft 289 kts 98°
2026-04-28 02:53 -0.03624 -51.70280 12887 ft 284 kts 98°
2026-04-28 02:53 -0.03930 -51.68343 12531 ft 281 kts 98°
2026-04-28 02:54 -0.04231 -51.66432 12178 ft 278 kts 98°
2026-04-28 02:54 -0.04528 -51.64551 11821 ft 276 kts 98°
2026-04-28 02:54 -0.04827 -51.62662 11442 ft 275 kts 98°
2026-04-28 02:54 -0.05124 -51.60778 11065 ft 274 kts 98°
2026-04-28 02:55 -0.05420 -51.58908 10684 ft 269 kts 98°
2026-04-28 02:55 -0.05705 -51.57102 10306 ft 265 kts 97°
2026-04-28 02:55 -0.05991 -51.55289 9919 ft 260 kts 97°
2026-04-28 02:55 -0.06271 -51.53513 9561 ft 258 kts 97°
2026-04-28 02:56 -0.06547 -51.51766 9236 ft 256 kts 97°
2026-04-28 02:56 -0.06823 -51.50016 8907 ft 254 kts 97°
2026-04-28 02:56 -0.07097 -51.48279 8589 ft 252 kts 97°
2026-04-28 02:56 -0.07369 -51.46555 8261 ft 250 kts 97°
2026-04-28 02:57 -0.07638 -51.44855 7937 ft 249 kts 97°
2026-04-28 02:57 -0.07909 -51.43137 7609 ft 249 kts 97°
2026-04-28 02:57 -0.08174 -51.41454 7287 ft 248 kts 97°
2026-04-28 02:57 -0.08441 -51.39768 6958 ft 242 kts 97°
2026-04-28 02:58 -0.08700 -51.38130 6621 ft 235 kts 97°
2026-04-28 02:58 -0.08950 -51.36543 6293 ft 229 kts 97°
2026-04-28 02:58 -0.09195 -51.34994 5984 ft 223 kts 97°
2026-04-28 02:58 -0.09434 -51.33482 5677 ft 217 kts 97°
2026-04-28 02:59 -0.09666 -51.32011 5373 ft 213 kts 97°
2026-04-28 02:59 -0.09749 -51.30569 5111 ft 201 kts 74°
2026-04-28 02:59 -0.09136 -51.29375 4855 ft 189 kts 58°
2026-04-28 02:59 -0.08477 -51.28286 4585 ft 181 kts 57°
2026-04-28 03:00 -0.07817 -51.27223 4272 ft 177 kts 57°
2026-04-28 03:00 -0.07206 -51.26252 4049 ft 158 kts 56°
2026-04-28 03:00 -0.06631 -51.25349 3728 ft 152 kts 56°
2026-04-28 03:00 -0.06069 -51.24470 3414 ft 148 kts 56°
2026-04-28 03:01 -0.05530 -51.23629 3163 ft 142 kts 56°
2026-04-28 03:01 -0.04997 -51.22802 2977 ft 139 kts 56°
2026-04-28 03:01 -0.04484 -51.22005 2810 ft 136 kts 56°
2026-04-28 03:01 -0.03974 -51.21212 2713 ft 135 kts 56°
2026-04-28 03:02 -0.03462 -51.20418 2610 ft 134 kts 56°
2026-04-28 03:02 -0.02958 -51.19637 2492 ft 135 kts 55°
2026-04-28 03:02 -0.02445 -51.18842 2319 ft 133 kts 56°
2026-04-28 03:02 -0.01945 -51.18067 2191 ft 132 kts 56°
2026-04-28 03:03 -0.01443 -51.17288 2067 ft 133 kts 56°
2026-04-28 03:03 -0.00948 -51.16520 1941 ft 132 kts 56°
2026-04-28 03:03 -0.00468 -51.15778 1780 ft 134 kts 56°
2026-04-28 03:03 0.00036 -51.14996 1611 ft 134 kts 56°
2026-04-28 03:04 0.00544 -51.14209 1438 ft 134 kts 56°
2026-04-28 03:04 0.01052 -51.13423 1266 ft 135 kts 56°
2026-04-28 03:04 0.01561 -51.12635 1095 ft 135 kts 56°
2026-04-28 03:04 0.02074 -51.11841 942 ft 134 kts 56°
2026-04-28 03:05 0.02580 -51.11057 771 ft 135 kts 56°
2026-04-28 03:05 0.03086 -51.10274 601 ft 136 kts 56°
2026-04-28 03:05 0.03602 -51.09479 422 ft 136 kts 55°
2026-04-28 03:05 0.04123 -51.08685 253 ft 137 kts 56°
2026-04-28 03:06 0.04642 -51.07870 74 ft 138 kts 56°
2026-04-28 03:06 0.05102 -51.07162 59 ft 79 kts 58°
2026-04-28 03:06 0.05240 -51.06936 59 ft 17 kts 79°
2026-04-28 03:06 0.05215 -51.06897 59 ft 0 kts 152°
2026-04-28 03:07 0.05212 -51.06895 59 ft 0 kts 152°
2026-04-28 03:07 0.05205 -51.06891 59 ft 1 kts 152°
2026-04-28 03:07 0.05188 -51.06882 59 ft 3 kts 152°
2026-04-28 03:07 0.05167 -51.06869 59 ft 4 kts 149°
2026-04-28 03:08 0.05143 -51.06859 59 ft 2 kts 206°
2026-04-28 03:08 0.05138 -51.06866 59 ft 0 kts 247°
2026-04-28 03:08 0.05135 -51.06878 59 ft 3 kts 259°
2026-04-28 03:08 0.05121 -51.06921 59 ft 9 kts 246°
2026-04-28 03:09 0.05085 -51.06970 59 ft 8 kts 193°
2026-04-28 03:09 0.05028 -51.06947 58 ft 10 kts 148°
2026-04-28 03:09 0.04978 -51.06916 57 ft 2 kts 148°
2026-04-28 03:09 0.04970 -51.06911 57 ft 0 kts 148°